RADUGA 1 1 08513U 75123A 24289.63602267 .00000004 00000-0 00000-0 0 9996 2 08513 4.3843 276.4026 0006784 261.0558 140.3566 1.00273174188704 RADUGA 2 1 09416U 76092A 24289.84834325 -.00000135 00000-0 00000-0 0 9996 2 09416 5.0558 278.7415 0027846 18.4833 111.1909 1.00297742123238 RADUGA 3 1 10159U 77071A 24289.83130804 -.00000371 00000-0 00000-0 0 9992 2 10159 5.6874 281.8220 0009709 274.1161 242.0449 1.00265822170939 RADUGA 4 1 10987U 78073A 24289.70248619 .00000136 00000-0 00000-0 0 9992 2 10987 6.3385 285.9961 0009509 11.0031 19.8165 1.00251791113495 RADUGA 5 1 11343U 79035A 24289.84925054 -.00000191 00000-0 00000-0 0 9990 2 11343 6.8241 289.2140 0005376 212.7876 272.9223 1.00260245123244 RADUGA 6 1 11708U 80016A 24289.63332939 .00000082 00000-0 00000-0 0 9995 2 11708 7.2195 292.7984 0002889 259.8986 111.1196 1.00320896116050 RADUGA 7 1 12003U 80081A 24289.80318059 .00000065 00000-0 00000-0 0 9993 2 12003 7.4277 295.0519 0011327 289.9761 275.0183 1.00257813117194 RADUGA 8 1 12351U 81027A 24289.69987978 .00000126 00000-0 00000-0 0 9997 2 12351 7.7681 295.4702 0081431 254.6410 111.6534 1.00382178116437 RADUGA 9 1 12618U 81069A 24289.70205181 .00000130 00000-0 00000-0 0 9995 2 12618 8.0307 298.9936 0002990 205.5346 169.8862 1.00298641 41230 RADUGA 10 1 12897U 81102A 24289.84952720 -.00000201 00000-0 00000-0 0 9995 2 12897 8.1327 300.1286 0005022 224.3283 250.5993 1.00282829111236 RADUGA 11 1 13669U 82113A 24289.82102222 -.00000076 00000-0 00000-0 0 9998 2 13669 10.4184 315.3655 0041129 276.5825 185.3022 0.97708193115580 RADUGA 12 1 13974U 83028A 24289.63663084 -.00000046 00000-0 00000-0 0 9997 2 13974 9.4637 310.7939 0001293 247.6578 122.8088 1.00287235163277 RADUGA 13 1 14307U 83088A 24289.19076991 -.00000021 00000-0 00000-0 0 9993 2 14307 10.7118 316.8176 0014566 55.4945 147.7954 0.98172714112955 RADUGA 14 1 14725U 84016A 24289.85043493 -.00000223 00000-0 00000-0 0 9997 2 14725 9.7593 314.9617 0003943 185.4114 277.1635 1.00268297111995 RADUGA 15 1 15057U 84063A 24289.70300748 .00000110 00000-0 00000-0 0 9995 2 15057 9.9056 315.9681 0005072 207.5728 155.9935 1.00352767134991 RADUGA 16 1 15946U 85070A 24289.16049560 -.00000283 00000-0 00000-0 0 9995 2 15946 10.4880 320.8520 0002974 237.0667 205.8458 1.00235867116115 RADUGA 17 1 16250U 85107A 24288.90218112 -.00000255 00000-0 00000-0 0 9996 2 16250 10.6500 322.3548 0015348 214.1045 142.0187 1.00176504145550 RADUGA 18 1 16497U 86007A 24289.63723900 .00000038 00000-0 00000-0 0 9994 2 16497 11.5130 325.1778 0074171 186.8088 172.3562 0.98810452139839 RADUGA 19 1 17046U 86082A 24289.82952407 -.00000124 00000-0 00000-0 0 9992 2 17046 12.0576 329.2879 0013627 181.4166 285.6383 0.98460169136915 RADUGA 20 1 17611U 87028A 24287.97079618 -.00000138 00000-0 00000-0 0 9994 2 17611 14.1499 332.6179 0029736 162.5770 198.3546 0.95961667132452 RADUGA 21 1 18631U 87100A 24289.48003814 -.00000157 00000-0 00000-0 0 9992 2 18631 12.1831 329.6410 0002790 195.4639 296.8028 1.00184385134976 RADUGA 22 1 19596U 88095A 24289.63637020 -.00000046 00000-0 00000-0 0 9993 2 19596 12.3143 334.2762 0007789 187.5072 157.7432 1.00384912115536 RADUGA 23 1 19928U 89030A 24289.29979851 .00000123 00000-0 00000-0 0 9990 2 19928 12.5171 336.1277 0022563 191.5041 353.7113 1.00259776128737 RADUGA 1-1 1 20083U 89048A 24287.90594140 -.00000213 00000-0 00000-0 0 9994 2 20083 13.3653 339.3282 0021110 141.0488 223.0802 0.98711073125244 RADUGA 24 1 20367U 89098A 24289.63905878 -.00000082 00000-0 00000-0 0 9994 2 20367 13.1644 338.1701 0003134 227.3042 122.9254 1.00205575126855 RADUGA 25 1 20499U 90016A 24289.60604895 -.00000231 00000-0 00000-0 0 9990 2 20499 12.9641 338.9607 0006574 196.2237 340.8984 1.00374909126791 RADUGA 26 1 21016U 90112A 24289.71021656 -.00000015 00000-0 00000-0 0 9993 2 21016 13.3865 342.2238 0005150 132.9042 228.8239 1.00314702124159 RADUGA 1-2 1 21038U 90116A 24289.70465819 .00000089 00000-0 00000-0 0 9993 2 21038 13.4261 342.2734 0006719 139.4675 206.2524 1.00259027 41222 RADUGA 27 1 21132U 91014A 24289.20674230 .00000006 00000-0 00000-0 0 9999 2 21132 13.9112 341.4860 0002682 180.1173 1.3790 1.00169087123191 RADUGA 28 1 21821U 91087A 24289.83195308 -.00000378 00000-0 00000-0 0 9990 2 21821 13.8213 345.4858 0007534 172.9749 284.0644 1.00269732120213 RADUGA 29 1 22557U 93013A 24288.95088910 .00000122 00000-0 00000-0 0 9996 2 22557 14.1746 349.6481 0006928 164.4220 244.5499 1.00199879115564 RADUGA 30 1 22836U 93062A 24289.70535663 -.00000101 00000-0 00000-0 0 9994 2 22836 14.2937 351.6601 0003072 272.2242 88.9832 1.00258852 39892 RADUGA 1-3 1 22981U 94008A 24289.82269803 -.00000318 00000-0 00000-0 0 9999 2 22981 14.4147 352.7719 0003932 180.7136 247.4311 1.00256615112374 RADUGA 31 1 23010U 94012A 24288.90258471 .00000081 00000-0 00000-0 0 9991 2 23010 14.3834 352.7915 0004437 150.4520 255.5756 1.00310971112234 RADUGA 32 1 23448U 94087A 24289.70535663 -.00000108 00000-0 00000-0 0 9999 2 23448 14.4699 355.5361 0008192 229.8196 128.2579 1.00260898126761 RADUGA 1-4 1 25642U 99010A 24288.95264257 .00000123 00000-0 00000-0 0 9998 2 25642 15.4696 6.6842 0005974 245.4188 151.3114 1.00251310 93837 RADUGA 1-5 1 26477U 00049A 24289.32722916 .00000113 00000-0 00000-0 0 9991 2 26477 13.6170 12.4889 0003244 121.7027 52.3758 1.00257429 88300 RADUGA 1-6 1 26936U 01045A 24289.17950331 -.00000081 00000-0 00000-0 0 9990 2 26936 14.0357 19.0126 0019713 190.4392 165.3640 0.97744243 82630 RADUGA 1-7 1 28194U 04010A 24289.85083431 -.00000253 00000-0 00000-0 0 9997 2 28194 12.9684 25.4873 0005600 204.7793 189.9582 1.00375451 75312 RADUGA 1M-1 1 32373U 07058A 24289.05743637 .00000052 00000-0 00000-0 0 9995 2 32373 8.8035 57.3883 0002280 138.8609 240.3682 0.99396798 46336 RADUGA 1-8 1 34264U 09010A 24284.56812027 -.00000043 00000-0 00000-0 0 9998 2 34264 10.9016 47.2512 0010731 21.7801 333.9149 0.99831475 57033 RADUGA 1M-2 1 36358U 10002A 24289.76569090 -.00000183 00000-0 00000-0 0 9998 2 36358 2.0278 86.7849 0003470 143.6275 155.0358 1.00269863 43975 RADUGA 1M-3 1 39375U 13062A 24289.63020170 .00000157 00000-0 00000-0 0 9996 2 39375 4.4024 79.7638 0003611 294.0051 272.7601 1.00271933 39996